{"data":{"norad_id":56478,"epoch":"2026-05-24T19:47:26.580480Z","epoch_age_seconds":93354,"freshness":"FRESH","line1":"1 56478U 23064AG  26144.82461320  .00000345  00000+0  36727-4 0  9998","line2":"2 56478  69.9987 292.4865 0002779 266.1166  93.9675 14.98331077167140","mean_motion":14.98331077,"eccentricity":0.0002779,"inclination_deg":69.9987,"raan_deg":292.4865,"arg_perigee_deg":266.1166,"mean_anomaly_deg":93.9675,"bstar":3.6727e-5,"rev_number":16714,"period_min":96.106930044007,"perigee_km":570.12110273391,"apogee_km":573.98401809159,"semimajor_km":6950.1895604128,"source":"CELESTRAK","updated_at":"2026-05-25T13:38:18.072738Z"}}